Location: ???? ??????? ????
(31.2176°N, 31.6797°E)
Time: 18:47:13
(UTC+00:00)

Delta 2 Rocket - Pass Details

Date: 29 October 2020
Orbit: 415 x 806 km, 35.6° (Epoch: 01 December)

Event Time Altitude Azimuth Distance (km) Brightness Sun altitude
Rises 15:28:18 0° 288° (WNW) 2,957 8.2 -5.3°
Reaches altitude 10° 15:30:33 10° 290° (WNW) 2,106 7.3 -5.7°
Maximum altitude 15:35:33 81° 18° (NNE) 741 3.9 -6.8°
Drops below altitude 10° 15:41:05 10° 105° (ESE) 2,317 5.9 -7.9°
Enters shadow 15:41:57 - 106° (ESE) 2,641 6.2 -8.1°
